Location: Domicella
(40.8833°N, 14.5833°E)
Time: 07:27:06
(UTC+00:00)

Meteor 1-27 Rocket - Pass Details

Date: 15 May 2026
Orbit: 830 x 907 km, 81.3° (Epoch: 5 June)

Event Time Altitude Azimuth Distance (km) Brightness Sun altitude
Exits shadow 23:25:48 49° 289° (WNW) 1,130 4.3 -29.7°
Drops below altitude 10° 23:31:12 10° 359° (N) 2,530 7.1 -29.6°
Sets 23:33:43 0° 5° (N) 3,460 8.1 -29.5°
